Regional Weather Roundup
Issued by NWS

Home | Current Version | Previous Version | Graphics & Text | Print | Product List | Glossary On
Versions: 1 2 3 4 5 6 7 8 9 10 11 12 13 14 15 16 17 18 19 20 21 22 23 24 25 26 27 28 29 30 31 32 33 34 35 36 37 38 39 40 41 42 43 44 45 46 47 48 49 50
000
ASUS43 KMKX 310700
RWRWI

WISCONSIN REGIONAL WEATHER ROUNDUP
NATIONAL WEATHER SERVICE MILWAUKEE/SULLIVAN WI
200 AM CDT TUE MAY 31 2016

NOTE: "FAIR" INDICATES FEW OR NO CLOUDS BELOW 12,000 FEET WITH NO
SIGNIFICANT WEATHER AND/OR OBSTRUCTIONS TO VISIBILITY.

WIZ001-002-006>008-014>016-023>028-310800-
NORTHWEST WISCONSIN

CITY           SKY/WX    TMP DP  RH WIND       PRES   REMARKS
SUPERIOR ARPT  CLOUDY    47  43  88 NE16G26   30.00R
ASHLAND        CLOUDY    50  44  80 NE8       30.01F
HAYWARD        CLOUDY    62  50  64 NE7       29.96F
SIREN          MOCLDY    65  54  68 CALM      29.90F
CUMBERLAND     CLOUDY    63  55  77 SE7       29.93S
RICE LAKE      CLOUDY    67  55  63 SE8       29.94S
CHETEK         CLOUDY    66  56  69 S6        29.94S
LADYSMITH      CLOUDY    62  55  77 E5        29.97F
EAU CLAIRE     NOT AVBL
MENOMONIE      CLOUDY    67  54  63 SE10      29.93F
NEW RICHMOND   CLOUDY    68  53  58 S10       29.90F
OSCEOLA        CLOUDY    69  54  58 SE8       29.92F
$$

WIZ003>005-009-010-017-018-310800-
NORTH CENTRAL WISCONSIN

CITY           SKY/WX    TMP DP  RH WIND       PRES   REMARKS
MANITOWISH WTR NOT AVBL
ARBOR VITAE    CLOUDY    59  48  66 E10       30.02S
WOODRUFF       CLOUDY    59  48  66 E10       30.02S
RHINELANDER    PTCLDY    60  46  59 E8        30.02S
EAGLE RIVER      N/A     56  46  69 E9        30.03S
LAND O LAKES   CLOUDY    56  48  76 E6        30.06S
PHILLIPS       CLOUDY    56  52  87 CALM      29.99S
TOMAHAWK       CLOUDY    53  52  95 CALM      30.00F
MEDFORD        CLOUDY    61  54  76 S3        29.99R
MERRILL        PTCLDY    54  54 100 NE3       30.00S
$$

WIZ029-030-035-036-043>047-310800-
CENTRAL WISCONSIN

CITY           SKY/WX    TMP DP  RH WIND       PRES   REMARKS
WAUSAU         PTCLDY    60  55  83 E6        29.98S
MOSINEE        PTCLDY    59  52  77 E3        30.00S
MARSHFIELD     CLOUDY    64  52  64 S7        29.99R
STEVENS POINT  CLOUDY    56  53  90 CALM      29.99F
WAUPACA        CLOUDY    60  59  97 CALM      29.99S
WAUTOMA        MOCLDY   N/A N/A N/A CALM      29.98F
WISC RAPIDS    CLOUDY    65  51  60 SW9       30.01R
CAMP DOUGLAS   RAIN      61  61 100 W6        30.01S FOG
$$

WIZ011>013-019>022-031-037>040-048>050-310800-
NORTHEAST WISCONSIN

CITY           SKY/WX    TMP DP  RH WIND       PRES   REMARKS
ANTIGO         PTCLDY    58  51  77 E12       30.02S
SHAWANO        CLOUDY    64  54  70 NE9       30.02R
OCONTO         CLOUDY    59  53  79 NE7       30.02R
STURGEON BAY   NOT AVBL
GREEN BAY      CLOUDY    62  56  80 NE13      30.01R
MANITOWOC      NOT AVBL
APPLETON       MOCLDY    63  54  72 S6        29.98S
CLINTONVILLE   PTCLDY    57  55  94 CALM      29.99S
OSHKOSH        MOCLDY    63  57  81 S6        29.98F
$$

WIZ032>034-041-042-053>061-310800-
SOUTHWEST WISCONSIN

CITY           SKY/WX    TMP DP  RH WIND       PRES   REMARKS
LA CROSSE      LGT RAIN  66  60  81 S6        29.99S
SPARTA         RAIN      63  60  91 CALM      30.03R
VIROQUA        CLOUDY    63  61  93 NW6       30.02S
BOSCOBEL       NOT AVBL
PRAIRIE DU CHI CLOUDY    62  61  96 NW5       29.96F
PLATTEVILLE    CLOUDY    65  62  91 SW6       30.03R
$$

WIZ056-057-062-063-064-067-068-310800-
SOUTH CENTRAL WISCONSIN

CITY           SKY/WX    TMP DP  RH WIND       PRES   REMARKS
REEDSBURG      CLOUDY    66  56  68 N3        30.00R
BARABOO/DELLS  CLOUDY    69  50  52 W5        30.01R
LONE ROCK      NOT AVBL
MINERAL POINT  LGT RAIN  68  52  56 CALM      30.01S
MADISON        MOCLDY    67  57  70 S5        29.98R
MIDDLETON      MOCLDY    68  58  68 S5        29.99R
WATERTOWN      CLOUDY    62  58  86 E3        29.99S
MONROE         CLOUDY    66  54  63 SE6       29.99R
JANESVILLE     MOCLDY    64  55  72 CALM      29.98S
$$

WIZ051-052-058>065-066-070>072-310800-
SOUTHEAST WISCONSIN

CITY           SKY/WX    TMP DP  RH WIND       PRES   REMARKS
MILWAUKEE      CLOUDY    62  55  77 SE5       30.00S
WAUKESHA       CLOUDY    59  54  82 CALM      30.01S
MILWAUKEE/TIMM CLOUDY    59  52  77 CALM      30.01S
RACINE         CLOUDY    61  56  83 S3        30.01S
BURLINGTON     MOCLDY    59  56  92 CALM      30.00S
KENOSHA        PTCLDY    62  55  77 SE3       30.00S
FOND DU LAC    CLOUDY    63  57  81 CALM      29.99S
SHEBOYGAN      PTCLDY    58  55  90 W5        30.00S
WEST BEND      CLOUDY    57  55  94 CALM      30.00F
JUNEAU         MOCLDY    61  56  83 SE5       30.00S
$$

LSZ147-162-310800-
LAKE SUPERIOR

STATION/POSITION TIME  TEMP    WIND        PRES    WAVE
                       AIR SEA DIR/SP/G            HT/PER
                 (UTC) (F)     (DEG/KT/KT) (MB)    (FT/S)
W MID LAKE BUOY  0550   42 38   70/ 16/ 17 1018.7F   2/ 4
DEVILS ISLAND    0600   46      80/ 25/ 28 1018.1F
SAXON HARBOR     0620   53      50/ 13/ 20 1015.6F
$$

LMZ867-665-643>646-310800-
LAKE MICHIGAN

STATION/POSITION TIME  TEMP    WIND        PRES    WAVE
                       AIR SEA DIR/SP/G            HT/PER
                 (UTC) (F)     (DEG/KT/KT) (MB)    (FT/S)
CHAMBERS ISLAND  0600   57     360/ 19/ 24 1016.9R
N MID LAKE BUOY  0550   53 50   10/ 14/ 16 1016.1F   1
NORTHPORT PIER   0600   57     360/ 12/ 15 1016.6R
KEWAUNEE LAKESHO 0600   63     240/  5/  8 1014.7R
SHEBOYGAN LAKESH 0600   65     220/  5/  6 1016.0S
PORT WASHINGTON  0600   63     260/  4/  5 1016.6S
S MID LAKE BUOY  0550   61 57  130/  4/  4 1015.5F   0
KENOSHA   LAKESH 0600   63     180/  2/  3 1015.6F
$$

TC  - TEMPERATURE IN CELSIUS
VSB - VISIBILITY IN STATUTE MILES
WCI - WIND CHILL INDEX
HX  - HEAT INDEX




USA.gov is the U.S. government's official web portal to all federal, state and local government web resources and services.